| time (UTC) | temp F | wind direction | speed MPH | gust MPH | rain 1hr in | rain 24hr in | rain mn in | humidity % | barometer mb |
| 20260905094524 | 69 | 329 | 0.0 | 0.0 | 0.00 | 0.00 | 0.00 | 84 | 1011.1 |
| 20260905093004 | 70 | 329 | 0.0 | 0.0 | 0.00 | 0.00 | 0.00 | 82 | 1011.1 |
| 20260905091510 | 70 | 329 | 0.0 | 3.0 | 0.00 | 0.00 | 0.00 | 80 | 1011.0 |
| 20260905090016 | 70 | 309 | 0.0 | 2.0 | 0.00 | 0.00 | 0.00 | 81 | 1011.1 |
| 20260905084526 | 70 | 349 | 0.0 | 2.0 | 0.00 | 0.00 | 0.00 | 83 | 1011.1 |
| 20260905083026 | 69 | 298 | 0.0 | 1.0 | 0.00 | 0.00 | 0.00 | 86 | 1011.1 |
| 20260905081507 | 70 | 350 | 0.0 | 0.0 | 0.00 | 0.00 | 0.00 | 86 | 1011.1 |
| 20260905080020 | 70 | 350 | 0.0 | 0.0 | 0.00 | 0.00 | 0.00 | 85 | 1011.1 |
| 20260905074525 | 71 | 350 | 0.0 | 0.0 | 0.00 | 0.00 | 0.00 | 85 | 1011.2 |
| 20260905073037 | 71 | 350 | 0.0 | 2.0 | 0.00 | 0.00 | 0.00 | 83 | 1011.2 |
| 20260905071532 | 69 | 38 | 0.0 | 0.0 | 0.00 | 0.00 | 0.00 | 92 | 1011.3 |
| 20260905070013 | 70 | 38 | 0.0 | 0.0 | 0.00 | 0.00 | 0.00 | 95 | 1011.3 |
| 20260905064516 | 70 | 38 | 0.0 | 0.0 | 0.00 | 0.00 | 0.00 | 95 | 1011.2 |
| 20260905063027 | 70 | 38 | 0.0 | 0.0 | 0.00 | 0.00 | 0.00 | 94 | 1011.4 |
| 20260905061528 | 70 | 38 | 0.0 | 0.0 | 0.00 | 0.00 | 0.00 | 94 | 1011.3 |
| 20260905060028 | 70 | 38 | 0.0 | 0.0 | 0.00 | 0.00 | 0.00 | 94 | 1011.4 |
| 20260905054516 | 70 | 38 | 0.0 | 0.0 | 0.00 | 0.00 | 0.00 | 93 | 1011.5 |
| 20260905053033 | 71 | 38 | 0.0 | 0.0 | 0.00 | 0.00 | 0.00 | 93 | 1011.6 |
| 20260905051527 | 71 | 38 | 0.0 | 1.0 | 0.00 | 0.00 | 0.00 | 94 | 1011.7 |
| 20260905050036 | 71 | 152 | 0.0 | 0.0 | 0.00 | 0.00 | 0.00 | 94 | 1011.7 |
| 20260905044544 | 72 | 152 | 0.0 | 1.0 | 0.00 | 0.00 | 0.00 | 93 | 1011.9 |
| 20260905043020 | 72 | 152 | 0.0 | 1.0 | 0.00 | 0.00 | 0.00 | 93 | 1012.0 |
| 20260905041527 | 72 | 152 | 0.0 | 1.0 | 0.00 | 0.00 | 0.00 | 92 | 1012.0 |
| 20260905040030 | 73 | 152 | 0.0 | 0.0 | 0.00 | 0.00 | 0.00 | 92 | 1012.0 |
| 20260905034549 | 73 | 152 | 0.0 | 0.0 | 0.00 | 0.15 | 0.00 | 91 | 1011.9 |
| 20260905033029 | 73 | 152 | 0.0 | 0.0 | 0.00 | 0.20 | 0.00 | 92 | 1012.2 |
| 20260905031527 | 73 | 152 | 0.0 | 2.0 | 0.00 | 0.20 | 0.00 | 92 | 1012.1 |
| 20260905030006 | 74 | 34 | 0.0 | 1.0 | 0.00 | 0.20 | 0.00 | 91 | 1012.0 |
| 20260905024508 | 74 | 34 | 0.0 | 0.0 | 0.00 | 0.20 | 0.00 | 90 | 1011.9 |
| 20260905023037 | 74 | 34 | 0.0 | 2.0 | 0.00 | 0.20 | 0.00 | 90 | 1011.7 |
| 20260905021520 | 74 | 34 | 0.0 | 1.0 | 0.00 | 0.20 | 0.00 | 1011.5 | |
| 20260905020029 | 75 | 34 | 0.0 | 0.0 | 0.00 | 0.20 | 0.00 | 89 | 1011.5 |
| 20260905014505 | 75 | 34 | 0.0 | 0.0 | 0.00 | 0.20 | 0.00 | 89 | 1011.7 |
| 20260905013007 | 75 | 34 | 0.0 | 1.0 | 0.00 | 0.20 | 0.00 | 1011.7 | |
| 20260905011517 | 75 | 116 | 0.0 | 0.0 | 0.00 | 0.20 | 0.00 | 88 | 1011.7 |
| 20260905010031 | 75 | 116 | 0.0 | 0.0 | 0.00 | 0.20 | 0.00 | 88 | 1011.6 |
| 20260905004530 | 75 | 116 | 0.0 | 0.0 | 0.00 | 0.20 | 0.00 | 88 | 1011.7 |
| 20260905003008 | 75 | 116 | 0.0 | 0.0 | 0.00 | 0.20 | 0.00 | 88 | 1011.7 |
| 20260905001519 | 75 | 116 | 0.0 | 0.0 | 0.00 | 0.20 | 0.00 | 87 | 1011.5 |
| 20260905000021 | 76 | 116 | 0.0 | 0.0 | 0.00 | 0.20 | 0.00 | 85 | 1011.4 |
| 20260904234533 | 77 | 116 | 0.0 | 0.0 | 0.00 | 0.20 | 0.00 | 84 | 1011.3 |
| 20260904233031 | 77 | 116 | 0.0 | 0.0 | 0.00 | 0.20 | 0.00 | 82 | 1011.2 |
| 20260904231511 | 78 | 116 | 0.0 | 0.0 | 0.00 | 0.20 | 0.00 | 82 | 1011.1 |
| 20260904230014 | 79 | 116 | 0.0 | 0.0 | 0.00 | 0.20 | 0.00 | 79 | 1011.1 |
| 20260904224520 | 80 | 116 | 0.0 | 0.0 | 0.00 | 0.20 | 0.00 | 78 | 1011.1 |
| 20260904223028 | 81 | 116 | 0.0 | 2.0 | 0.00 | 0.20 | 0.00 | 76 | 1011.3 |
| 20260904221531 | 81 | 116 | 0.0 | 2.0 | 0.00 | 0.20 | 0.00 | 73 | 1011.5 |
| 20260904220024 | 81 | 116 | 0.0 | 2.0 | 0.00 | 0.20 | 0.00 | 75 | 1011.5 |
| 20260904214517 | 81 | 150 | 0.0 | 0.0 | 0.00 | 0.20 | 0.00 | 72 | 1011.5 |
| 20260904213024 | 82 | 150 | 0.0 | 2.0 | 0.00 | 0.20 | 0.00 | 71 | 1011.6 |
| 20260904211530 | 82 | 193 | 0.0 | 2.0 | 0.00 | 0.20 | 0.00 | 71 | 1011.5 |
| 20260904210037 | 82 | 181 | 0.0 | 2.0 | 0.00 | 0.20 | 0.00 | 70 | 1011.5 |
| 20260904204515 | 83 | 184 | 1.0 | 3.0 | 0.00 | 0.20 | 0.00 | 67 | 1011.5 |
| 20260904203033 | 83 | 127 | 0.0 | 2.0 | 0.00 | 0.20 | 0.00 | 68 | 1011.3 |
| 20260904201528 | 83 | 156 | 0.0 | 2.0 | 0.00 | 0.20 | 0.00 | 66 | 1011.2 |
| 20260904200037 | 83 | 202 | 0.0 | 2.0 | 0.00 | 0.20 | 0.00 | 69 | 1011.5 |
| 20260904194547 | 82 | 52 | 0.0 | 2.0 | 0.00 | 0.20 | 0.00 | 68 | 1011.7 |
| 20260904193021 | 83 | 137 | 0.0 | 2.0 | 0.00 | 0.20 | 0.00 | 68 | 1012.2 |
| 20260904191538 | 83 | 126 | 1.0 | 3.0 | 0.00 | 0.20 | 0.00 | 68 | 1012.3 |
| 20260904190032 | 83 | 159 | 1.0 | 3.0 | 0.00 | 0.20 | 0.00 | 66 | 1012.4 |
| 20260904184534 | 84 | 178 | 1.0 | 5.0 | 0.00 | 0.20 | 0.00 | 66 | 1012.6 |
| 20260904183017 | 84 | 164 | 1.0 | 3.0 | 0.00 | 0.20 | 0.00 | 66 | 1012.8 |
| 20260904181523 | 84 | 179 | 2.0 | 3.0 | 0.00 | 0.20 | 0.00 | 65 | 1012.9 |
| 20260904180029 | 84 | 186 | 1.0 | 4.0 | 0.00 | 0.20 | 0.00 | 66 | 1012.9 |
| 20260904174556 | 84 | 169 | 1.0 | 4.0 | 0.00 | 0.20 | 0.00 | 67 | 1013.2 |
| 20260904173035 | 83 | 183 | 1.0 | 2.0 | 0.00 | 0.20 | 0.00 | 67 | 1013.1 |
| 20260904171505 | 83 | 170 | 0.0 | 4.0 | 0.00 | 0.20 | 0.00 | 68 | 1013.0 |
| 20260904170004 | 82 | 190 | 1.0 | 3.0 | 0.00 | 0.20 | 0.00 | 71 | 1012.9 |
| 20260904164507 | 82 | 159 | 1.0 | 3.0 | 0.00 | 0.20 | 0.00 | 71 | 1013.2 |
| 20260904163004 | 82 | 236 | 1.0 | 4.0 | 0.00 | 0.20 | 0.00 | 69 | 1013.4 |
| 20260904161505 | 81 | 30 | 1.0 | 5.0 | 0.00 | 0.20 | 0.00 | 74 | 1013.3 |
| 20260904160006 | 81 | 159 | 0.0 | 2.0 | 0.00 | 0.20 | 0.00 | 71 | 1013.3 |
| 20260904154504 | 82 | 219 | 1.0 | 3.0 | 0.00 | 0.20 | 0.00 | 69 | 1013.3 |
| 20260904153008 | 81 | 228 | 1.0 | 3.0 | 0.00 | 0.20 | 0.00 | 73 | 1013.5 |
| 20260904151507 | 82 | 319 | 0.0 | 2.0 | 0.00 | 0.20 | 0.00 | 76 | 1013.4 |
| 20260904150010 | 80 | 11 | 1.0 | 3.0 | 0.00 | 0.20 | 0.00 | 77 | 1013.5 |
| 20260904144508 | 79 | 190 | 1.0 | 3.0 | 0.00 | 0.20 | 0.00 | 76 | 1013.6 |
| 20260904143006 | 78 | 209 | 1.0 | 4.0 | 0.00 | 0.20 | 0.00 | 77 | 1013.6 |
| 20260904141509 | 76 | 184 | 1.0 | 2.0 | 0.00 | 0.20 | 0.00 | 81 | 1013.6 |
| 20260904140011 | 76 | 196 | 0.0 | 5.0 | 0.00 | 0.20 | 0.00 | 80 | 1013.7 |
| 20260904134511 | 76 | 187 | 2.0 | 4.0 | 0.00 | 0.20 | 0.00 | 81 | 1013.6 |
| 20260904133013 | 75 | 182 | 1.0 | 3.0 | 0.00 | 0.20 | 0.00 | 82 | 1013.6 |
| 20260904131512 | 75 | 186 | 1.0 | 3.0 | 0.00 | 0.20 | 0.00 | 86 | 1013.7 |
| 20260904130012 | 74 | 215 | 1.0 | 2.0 | 0.00 | 0.20 | 0.00 | 86 | 1013.7 |
| 20260904124513 | 74 | 181 | 1.0 | 2.0 | 0.00 | 0.20 | 0.00 | 87 | 1013.8 |
| 20260904123014 | 73 | 198 | 0.0 | 2.0 | 0.00 | 0.20 | 0.00 | 89 | 1013.7 |
| 20260904121513 | 72 | 192 | 0.0 | 2.0 | 0.00 | 0.20 | 0.00 | 91 | 1013.5 |
| 20260904120017 | 71 | 207 | 1.0 | 2.0 | 0.00 | 0.20 | 0.00 | 93 | 1013.8 |
| 20260904114515 | 71 | 194 | 0.0 | 2.0 | 0.00 | 0.20 | 0.00 | 94 | 1013.6 |
| 20260904113020 | 70 | 198 | 0.0 | 2.0 | 0.00 | 0.20 | 0.00 | 95 | 1013.4 |
| 20260904111519 | 69 | 195 | 1.0 | 2.0 | 0.00 | 0.20 | 0.00 | 95 | 1013.4 |
| 20260904110036 | 69 | 199 | 0.0 | 0.0 | 0.00 | 0.21 | 0.00 | 94 | 1013.3 |
| 20260904104518 | 70 | 199 | 0.0 | 1.0 | 0.00 | 0.21 | 0.00 | 94 | 1013.0 |
| 20260904103023 | 70 | 199 | 0.0 | 2.0 | 0.00 | 0.21 | 0.00 | 93 | 1012.8 |
| 20260904101524 | 70 | 197 | 1.0 | 2.0 | 0.00 | 0.22 | 0.00 | 94 | 1012.8 |
| 20260904100025 | 70 | 201 | 1.0 | 2.0 | 0.00 | 0.24 | 0.00 | 94 | 1012.7 |